[[{"header":{"parameterUnit":"m.s-1","parameterCategory":1,"la1":30.2991,"la2":30.254,"lo1":-89.0895,"lo2":-89.0444,"dy":0.0017,"dx":0.0017,"nx":28,"ny":28,"refTime":"2025-06-07T21:00:00:Z","depth":0,"parameterNumber":2,"parameterNumberName":"U-component_of_WINDS"},"data":[0,0,0,0,0,0,0,0,0,0,0,0,0,0,0,0,0,0,0,0,0,0,0,0,0,0,0,0,0,0,0,0,0,0,0,0,0,0,0,0,0,0,0,0,0,0,0,0,0,0,0,0,0,0,0,0,0,0,4.4372,4.4373,0,4.4439,4.444,4.4441,4.4407,4.4405,4.4403,4.4401,4.4474,4.4478,4.4481,0,0,0,0,0,0,0,0,0,0,0,0,0,4.4218,4.4221,4.4372,4.4373,4.4374,4.4439,4.444,4.4441,4.4407,4.4405,4.4403,4.4401,4.4473,4.4477,4.4482,0,0,0,0,0,0,0,0,0,0,0,0,0,4.4285,4.4222,4.4372,4.4364,4.4364,4.4439,4.444,4.4441,4.4407,4.4405,4.4402,4.4399,4.4472,4.4477,4.4482,4.4569,0,0,4.4499,4.4501,0,0,0,0,0,0,0,0,4.4282,4.4291,4.4365,4.4365,4.4365,4.4412,4.4413,4.4484,4.4408,4.4391,4.4401,4.4398,4.4456,4.4462,4.4481,4.4573,4.4576,4.4499,4.4503,4.4505,4.4506,0,0,0,0,0,0,0,4.4277,4.4288,4.4399,4.4366,4.4366,4.4359,4.4366,4.4426,4.4438,4.4392,4.439,4.4398,4.4456,4.4476,4.4483,4.4577,4.4499,4.4504,4.4507,4.4509,4.4745,4.4748,0,0,0,0,0,0,4.4272,4.4284,4.4397,4.4401,4.4316,4.4364,4.4371,4.44,4.4437,4.444,4.4401,4.4396,4.4468,4.4476,4.4485,4.459,4.4505,4.451,4.4513,4.4742,4.4746,4.4749,0,0,0,0,0,0,4.4269,4.4283,4.4394,4.4342,4.4356,4.437,4.4401,4.4402,4.4422,4.4443,4.4445,4.4419,4.4466,4.4477,4.4549,4.4592,4.4512,4.4517,4.4739,4.4743,4.4748,4.48,0,0,0,0,0,0,4.4265,4.4282,4.4313,4.4343,4.4358,4.4455,4.4404,4.4406,4.4431,4.4427,4.4461,4.4464,4.4465,4.4541,4.4554,4.4598,4.4521,4.4735,4.4741,4.4746,4.4795,4.4806,4.4816,0,0,0,0,0,4.4259,4.4326,4.4315,4.4329,4.4398,4.4457,4.4466,4.4465,4.4435,4.4468,4.4482,4.4463,4.4585,4.4548,4.4563,4.4609,4.4732,4.4739,4.4746,4.479,4.4804,4.4815,0,0,0,0,0,0,4.4302,4.433,4.4318,4.4396,4.4424,4.4451,4.4493,4.4479,4.4518,4.4512,4.451,4.4518,4.4592,4.4608,4.4566,4.4696,4.4654,4.4664,4.4683,4.4696,4.4706,4.4701,4.4526,0,0,0,0,0,4.432,4.4365,4.4387,4.4454,4.4469,4.4479,4.4504,4.4501,4.4531,4.4543,4.4562,4.4593,4.4638,4.4668,4.4711,4.4797,4.4805,4.4837,4.4847,4.4855,4.4864,4.4912,4.4926,4.4771,4.4771,4.4771,0,0,4.4359,4.4379,4.4408,4.4463,4.4484,4.4532,4.4489,4.454,4.4576,4.4551,4.4619,4.4635,4.4669,4.4749,4.4784,4.4764,4.4909,4.4864,4.4871,4.4875,4.492,4.4935,4.4948,4.4776,4.4775,4.4775,0,0,4.4453,4.4473,4.4531,4.4554,4.4587,4.4593,4.4608,4.4637,4.4646,4.4714,4.4697,4.4741,4.4819,4.4844,4.4868,4.4974,4.4959,4.4989,4.5043,4.509,4.5102,4.5113,4.5151,4.5165,4.4997,4.4997,4.4998,0,4.4496,4.4566,4.4562,4.4616,4.4641,4.4621,4.468,4.4703,4.475,4.4769,4.4745,4.4843,4.4865,4.4951,4.4977,4.4996,4.5014,4.4984,4.51,4.5111,4.5121,4.5158,4.5172,4.5001,4.5,4.5,4.5,0,4.4618,4.4667,4.471,4.4754,4.4785,4.4841,4.4848,4.488,4.4875,4.4885,4.4956,4.4981,4.503,4.505,4.5046,4.5136,4.5122,4.51,4.5057,4.5139,4.5173,4.5187,4.5006,4.5004,4.5003,4.5003,0,0,4.4739,4.4782,4.4798,4.4818,4.4855,4.4893,4.495,4.4996,4.5024,4.5058,4.5105,4.5173,4.5153,4.518,4.5178,4.5219,4.5303,4.5192,4.5193,4.5212,4.5404,4.542,4.5436,4.5293,4.5296,4.5298,4.5401,0,4.4835,4.4932,4.4932,4.5023,4.5068,4.5051,4.51,4.5129,4.514,4.5182,4.5195,4.5243,4.5213,4.5229,4.5269,4.5284,4.5341,4.5277,4.5339,4.5341,4.5329,4.5454,4.5471,4.5567,4.5415,4.5417,4.5419,0,4.496,4.4997,4.5091,4.5123,4.5142,4.5186,4.5229,4.5269,4.5303,4.5308,4.5339,4.5332,4.5391,4.5348,4.5431,4.5387,4.5413,4.5425,4.5428,4.5433,4.5384,4.5462,4.5598,4.5612,4.544,4.5438,4.5437,0,4.5038,4.5112,4.5178,4.5197,4.5235,4.5266,4.5284,4.5314,4.5343,4.5382,4.54,4.5446,4.5471,4.5508,4.5514,4.5482,4.5597,4.5554,4.5604,4.5604,4.5628,4.5626,4.5769,4.5646,4.5646,4.5646,4.5645,0,4.5145,4.5204,4.5214,4.5255,4.5321,4.5322,4.5387,4.5403,4.543,4.5475,4.5464,4.5506,4.5512,4.5557,4.5562,4.563,4.5642,4.5649,4.5649,4.5649,4.5648,4.5665,4.5659,4.565,4.5649,4.5648,4.5647,0,4.5243,4.5252,4.5323,4.5354,4.5363,4.5411,4.5438,4.5478,4.5488,4.5545,4.5559,4.5576,4.5628,4.5638,4.57,4.5704,4.5785,4.5779,4.5773,4.5772,4.5821,4.5816,4.5979,4.6001,4.5865,4.5866,4.5867,0,4.531,4.5355,4.539,4.5419,4.5438,4.5485,4.5514,4.5517,4.5548,4.5591,4.5626,4.5677,4.5717,4.5802,4.5821,4.5868,4.5863,4.5917,4.587,4.5869,4.5864,4.586,4.5865,4.5926,4.5927,4.5928,4.5929,0,4.5428,4.5431,4.5472,4.5517,4.5551,4.5587,4.562,4.5645,4.5653,4.5689,4.5741,4.5773,4.5836,4.5887,4.5935,4.5955,4.5944,4.5944,4.5958,4.5958,4.5952,4.5956,4.5797,4.594,4.5939,4.5938,4.5938,4.5937,4.5512,4.5552,4.5583,4.563,4.5656,4.5688,4.5727,4.5743,4.5787,4.5837,4.5838,4.5896,4.593,4.5993,4.6016,4.6063,4.6046,4.6066,4.6071,4.6076,4.608,4.5946,4.6072,4.6071,4.6071,4.6071,4.6071,0,4.5629,4.5649,4.5693,4.574,4.5778,4.5764,4.5801,4.5834,4.5884,4.5917,4.5957,4.6019,4.6068,4.6092,4.6142,4.6174,4.6171,4.6187,4.6184,4.6189,4.6092,4.6075,4.6189,4.6189,4.6189,4.6189,4.6189,4.6189,4.5695,4.576,4.5767,4.5847,4.5867,4.5922,4.5945,4.5975,4.6001,4.6069,4.611,4.6125,4.6155,4.6207,4.6252,4.6258,4.6277,4.6296,4.6299,4.6208,4.6196,4.6184,4.6168,4.63,4.63,4.6392,4.6393,4.6393]},{"header":{"parameterUnit":"m.s-1","parameterCategory":1,"la1":30.2991,"la2":30.254,"lo1":-89.0895,"lo2":-89.0444,"dy":0.0017,"dx":0.0017,"nx":28,"ny":28,"refTime":"2025-06-07T21:00:00:Z","depth":0,"parameterNumber":3,"parameterNumberName":"V-component_of_WINDS"},"data":[0,0,0,0,0,0,0,0,0,0,0,0,0,0,0,0,0,0,0,0,0,0,0,0,0,0,0,0,0,0,0,0,0,0,0,0,0,0,0,0,0,0,0,0,0,0,0,0,0,0,0,0,0,0,0,0,0,0,2.9187,2.9188,0,2.927,2.9271,2.9271,2.9286,2.9285,2.9285,2.9284,2.9365,2.9368,2.937,0,0,0,0,0,0,0,0,0,0,0,0,0,2.9035,2.9038,2.9187,2.9188,2.9189,2.9269,2.9271,2.9272,2.9286,2.9285,2.9285,2.9284,2.9364,2.9367,2.9371,0,0,0,0,0,0,0,0,0,0,0,0,0,2.9108,2.9039,2.9186,2.9206,2.9208,2.9269,2.9271,2.9272,2.9286,2.9285,2.9284,2.9283,2.9363,2.9367,2.9371,2.9417,0,0,2.9384,2.9386,0,0,0,0,0,0,0,0,2.9104,2.9113,2.9202,2.9205,2.9208,2.9267,2.9247,2.9321,2.9287,2.9257,2.9284,2.9283,2.9333,2.9339,2.9357,2.9421,2.9425,2.9384,2.9387,2.9389,2.939,0,0,0,0,0,0,0,2.9099,2.911,2.9219,2.9203,2.9207,2.9208,2.9218,2.9261,2.9299,2.9259,2.926,2.927,2.9334,2.9353,2.9359,2.9426,2.9384,2.9388,2.939,2.9392,2.9528,2.9529,0,0,0,0,0,0,2.9091,2.9106,2.9217,2.9222,2.9152,2.9212,2.9222,2.9249,2.9299,2.9306,2.9271,2.9271,2.9346,2.9354,2.9362,2.9417,2.9389,2.9392,2.9395,2.9527,2.9528,2.953,0,0,0,0,0,0,2.9088,2.9101,2.9213,2.9164,2.9179,2.9216,2.9245,2.9251,2.927,2.9308,2.9314,2.9284,2.9346,2.9356,2.9403,2.942,2.9394,2.9398,2.9526,2.9527,2.9529,2.9529,0,0,0,0,0,0,2.9083,2.9099,2.9119,2.9165,2.9181,2.9255,2.9246,2.9253,2.9277,2.9278,2.9321,2.9328,2.9346,2.9397,2.9407,2.9426,2.9401,2.9524,2.9527,2.9528,2.9528,2.9531,2.9533,0,0,0,0,0,2.9078,2.9116,2.912,2.9133,2.9207,2.9256,2.9265,2.9287,2.9279,2.9297,2.9321,2.9326,2.9417,2.9401,2.9413,2.9433,2.9523,2.9526,2.9528,2.9527,2.953,2.9533,0,0,0,0,0,0,2.907,2.9122,2.9127,2.9181,2.9214,2.9258,2.9283,2.929,2.9325,2.9323,2.9347,2.9357,2.9402,2.9422,2.9404,2.9479,2.9469,2.9474,2.9464,2.9468,2.947,2.9464,2.9405,0,0,0,0,0,2.9075,2.9112,2.9155,2.9198,2.9215,2.9246,2.9268,2.9281,2.9316,2.9329,2.9357,2.9389,2.9424,2.9447,2.9482,2.9531,2.9539,2.955,2.9553,2.9555,2.9559,2.9583,2.9588,2.9538,2.9538,2.9538,0,0,2.9085,2.9118,2.914,2.9198,2.9225,2.926,2.9257,2.9296,2.9322,2.9335,2.9381,2.9402,2.9439,2.9486,2.9508,2.9505,2.9574,2.9558,2.9559,2.9562,2.9586,2.9591,2.9595,2.954,2.9539,2.9539,0,0,2.9122,2.9151,2.9189,2.9216,2.9257,2.9277,2.9286,2.9329,2.9344,2.939,2.94,2.943,2.9491,2.9517,2.9537,2.958,2.9585,2.9591,2.9604,2.9628,2.9632,2.9636,2.9649,2.9654,2.9594,2.9595,2.9595,0,2.9128,2.9185,2.9208,2.9246,2.927,2.9283,2.932,2.9345,2.9395,2.941,2.9405,2.948,2.9506,2.9559,2.9569,2.9586,2.9595,2.9586,2.963,2.9634,2.9637,2.965,2.9655,2.9595,2.9595,2.9595,2.9595,0,2.919,2.9229,2.9254,2.9303,2.9329,2.9367,2.9393,2.9417,2.9427,2.9447,2.9492,2.9524,2.9564,2.9577,2.9588,2.963,2.9626,2.9626,2.9616,2.9642,2.9654,2.966,2.9595,2.9595,2.9595,2.9595,0,0,2.9225,2.9284,2.9293,2.9314,2.9359,2.9389,2.9425,2.9465,2.9484,2.9517,2.9547,2.9597,2.9596,2.962,2.9633,2.9654,2.9683,2.965,2.9651,2.9653,2.9728,2.9728,2.9734,2.9686,2.9687,2.9688,2.9725,0,2.9266,2.9334,2.9354,2.941,2.9444,2.9456,2.9488,2.9517,2.9536,2.9566,2.9586,2.9621,2.9618,2.9632,2.9653,2.9675,2.9698,2.9672,2.9712,2.9713,2.9702,2.974,2.9741,2.9774,2.973,2.9731,2.9731,0,2.9323,2.9357,2.9417,2.9455,2.947,2.9499,2.9535,2.9565,2.9598,2.961,2.9635,2.9645,2.9681,2.967,2.9719,2.9701,2.9718,2.9731,2.9732,2.9736,2.9723,2.9744,2.9785,2.979,2.974,2.9739,2.9738,0,2.934,2.9401,2.9444,2.9462,2.9508,2.9527,2.9547,2.9579,2.9601,2.9633,2.9647,2.9682,2.97,2.9726,2.9745,2.9736,2.9791,2.9782,2.98,2.9799,2.9811,2.981,2.9854,2.9824,2.9824,2.9824,2.9823,0,2.9383,2.9418,2.9452,2.9479,2.9517,2.9539,2.9577,2.9597,2.9625,2.9653,2.9665,2.9691,2.9715,2.9744,2.9759,2.9795,2.9804,2.9813,2.9816,2.9811,2.981,2.9822,2.982,2.9825,2.9825,2.9824,2.9824,0,2.9409,2.9434,2.9481,2.952,2.9531,2.9558,2.9591,2.9615,2.9634,2.9669,2.9679,2.9708,2.9742,2.9763,2.9806,2.9816,2.9855,2.9859,2.9845,2.9846,2.9862,2.986,2.9915,2.9923,2.9888,2.9889,2.9889,0,2.9434,2.9462,2.9504,2.9524,2.9545,2.9578,2.96,2.9621,2.9644,2.9681,2.9701,2.9736,2.9765,2.9818,2.9841,2.9874,2.9877,2.9894,2.9882,2.9875,2.9875,2.9873,2.9875,2.9896,2.9896,2.9896,2.9897,0,2.9475,2.9486,2.9518,2.9554,2.9581,2.961,2.9639,2.9654,2.968,2.9704,2.974,2.9762,2.9806,2.9839,2.9873,2.9891,2.9897,2.99,2.9906,2.9901,2.9891,2.9895,2.9849,2.9899,2.9899,2.9898,2.9898,2.9898,2.9501,2.9525,2.9558,2.9593,2.9617,2.9643,2.9667,2.9689,2.9719,2.9757,2.9767,2.9803,2.9833,2.9879,2.9898,2.9925,2.9922,2.9931,2.9933,2.9934,2.9933,2.9887,2.9931,2.9931,2.9931,2.9931,2.9931,0,2.9541,2.9563,2.9595,2.9635,2.9661,2.9666,2.9698,2.9719,2.9751,2.9779,2.9807,2.9846,2.9878,2.9903,2.9935,2.9952,2.9955,2.9959,2.9958,2.9961,2.9935,2.9926,2.9956,2.9956,2.9956,2.9956,2.9956,2.9956,2.9565,2.9606,2.9619,2.967,2.9691,2.9728,2.9745,2.9768,2.979,2.9833,2.986,2.9877,2.9903,2.9937,2.9965,2.9971,2.9982,2.9985,2.9992,2.9967,2.9964,2.9961,2.9953,2.9988,2.9988,3.0016,3.0017,3.0017]}]]